Location: *
(24.1434°N, 56.8729°E)
Time: 09:32:35
(UTC+00:00)

Cosmos 2263 - Pass Details

Date: 09 April 2020
Orbit: 833 x 863 km, 70.9° (Epoch: 29 May)

Event Time Altitude Azimuth Distance (km) Brightness Sun altitude
Rises 15:54:31 0° 338° (NNW) 3,376 7.9 -19.1°
Reaches altitude 10° 15:56:58 10° 337° (NNW) 2,441 7.2 -19.7°
Maximum altitude 16:02:31 72° 254° (WSW) 876 4.3 -20.9°
Enters shadow 16:06:41 18° 172° (S) 1,921 5.8 -21.8°
